Regional Weather Roundup
Issued by NWS

Home | Current Version | Previous Version | Graphics & Text | Print | Product List | Glossary On
Versions: 1 2 3 4 5 6 7 8 9 10 11 12 13 14 15 16 17 18 19 20 21 22 23 24 25 26 27 28 29 30 31 32 33 34 35 36 37 38 39 40 41 42 43 44 45 46 47 48 49 50
000
ASUS45 KPSR 301700
RWRAZ

ARIZONA HOURLY REGIONAL WEATHER ROUNDUP
NATIONAL WEATHER SERVICE PHOENIX AZ
1000 AM MST SUN AUG 30 2015

NOTE: FAIR INDICATES FEW OR NO CLOUDS BELOW 12,000 FEET WITH NO
SIGNIFICANT WEATHER AND/OR OBSTRUCTIONS TO VISIBILITY.

AZZ001>003-036-301800-
NORTHWEST ARIZONA

CITY           SKY/WX    TMP DP  RH WIND       PRES   REMARKS
KINGMAN        PTSUNNY   91  53  27 SW10      30.03R
$$

AZZ004>008-015-016-018-301800-
NORTH CENTRAL ARIZONA

CITY           SKY/WX    TMP DP  RH WIND       PRES   REMARKS
GRAND CANYON   PTSUNNY   76  53  44 SW12      30.30S
PRESCOTT       MOSUNNY   82  57  42 E6        30.19S
FLAGSTAFF      NOT AVBL
PAYSON         MOSUNNY   81  54  39 CALM      30.23S
PAGE           MOSUNNY   86  50  28 CALM      30.10R
$$

AZZ009>014-017-301800-
NORTHEAST ARIZONA

CITY           SKY/WX    TMP DP  RH WIND       PRES   REMARKS
WINSLOW        NOT AVBL
SAINT JOHNS    SUNNY     78  50  37 E3        30.26S
WINDOW ROCK    MOSUNNY   81  48  31 MISG      30.32S
$$

AZZ023-301800-
GREATER PHOENIX AREA

CITY           SKY/WX    TMP DP  RH WIND       PRES   REMARKS
PHOENIX        MOSUNNY   95  60  31 SE7       29.88R
GLENDALE       MOSUNNY   99  61  28 E8        29.91R
DEER VALLEY    SUNNY     95  58  28 SE6       29.91R
SCOTTSDALE     SUNNY     96  56  26 SE6       29.93R
MESA-FALCON    MOSUNNY   97  55  24 E10       29.90S
MESA-GATEWAY   MOSUNNY   93  61  33 SE12      29.93S
CHANDLER       MOSUNNY   93  61  33 E7        29.91R
$$

AZZ027-028-301800-
SOUTHWEST MARICOPA COUNTY AND PINAL COUNTY

CITY           SKY/WX    TMP DP  RH WIND       PRES   REMARKS
CASA GRANDE    SUNNY     93  61  33 CALM      29.92S
$$

AZZ503-504-507>509-301800-
SOUTHEAST ARIZONA

CITY           SKY/WX    TMP DP  RH WIND       PRES   REMARKS
TUCSON         SUNNY     91  58  32 SE8       30.04R
RYAN FIELD     SUNNY     91  61  35 E8        30.02R
NOGALES        MOSUNNY   86  58  38 SW5       30.12S
SAFFORD        SUNNY     85  57  38 S8        30.08R
$$

AZZ020-021-025-026-031-301800-
SOUTHWEST ARIZONA

CITY           SKY/WX    TMP DP  RH WIND       PRES   REMARKS
YUMA           NOT AVBL
$$

CAZ031-033-041-043-047-048-061-301800-
SOUTHERN CALIFORNIA

CITY           SKY/WX    TMP DP  RH WIND       PRES   REMARKS
DOWNTOWN L.A.  SUNNY     83  66  56 CALM      29.90S
L.A. AIRPORT   MOSUNNY   78  67  68 VRB3      29.91S
SAN DIEGO      MOSUNNY   76  68  76 S6        29.93R
BURBANK        SUNNY     82  61  48 SE7       29.92S
ONTARIO        MOSUNNY   82  60  47 VRB3      29.92S
RIVERSIDE      SUNNY     83  60  45 CALM      29.92S
PALM SPRINGS   SUNNY     99  52  20 S5        29.82S
EL CENTRO NAS  SUNNY    101  46  15 W6        29.80S
IMPERIAL       SUNNY    101  49  17 W7        29.78S
BLYTHE         SUNNY     98  55  23 CALM      29.81S
$$

NVZ020-UTZ003-301800-
SOUTHERN NEVADA-UTAH

CITY           SKY/WX    TMP DP  RH WIND       PRES   REMARKS
LAS VEGAS      NOT AVBL
SALT LAKE CITY PTSUNNY   79  47  32 N8        30.00R
$$

NMZ009-TXZ055-301800-
NEW MEXICO-WEST TEXAS

CITY           SKY/WX    TMP DP  RH WIND       PRES   REMARKS
ALBUQUERQUE    MOSUNNY   78  50  37 W5        30.26S
EL PASO        SUNNY     82  53  36 SE7       30.17S
$$


........................KEY........................
SKY/WX - SKY CONDITION/WEATHER
TMP    - TEMPERATURE IN FAHRENHEIT
DP     - DEW POINT IN FAHRENHEIT
RH     - RELATIVE HUMIDITY IN PERCENT
WIND   - DIRECTION AND SPEED IN MILES PER HOUR (MPH)
VRB    - VARIABLE WIND DIRECTION
PRES   - MEAN SEA LEVEL PRESSURE IN INCHES OF MERCURY
         F - FALLING PRESSURE   R - RISING PRESSURE
         S - STEADY PRESSURE
VSB    - VISIBILITY IN MILES
HX     - HEAT INDEX IN FAHRENHEIT
WCI    - WIND CHILL INDEX IN FAHRENHEIT
TC     - TEMPERATURE IN CELSIUS WHICH IS ALSO KNOWN AS
         TEMPERATURE IN CENTIGRADE
AFB    - AIR FORCE BASE
         LUKE AFB IS LUKE AIR FORCE BASE
         DAVIS-MONTHAN IS DAVIS-MONTHAN AIR FORCE BASE
NAS    - NAVAL AIR STATION
         EL CENTRO NAS IS EL CENTRO NAVAL AIR STATION
N/A    - NOT AVAILABLE




USA.gov is the U.S. government's official web portal to all federal, state and local government web resources and services.